Flag for U.S.A. Weather past 2 weeks in Plano, Texas, U.S.A.

Now
73 °F

Sunny.


Feels Like: 75 °F
Forecast: 66 / 83 °F
Wind: 15 mph from South

Location: McKinney Municipal Airport

Current Time: Apr 1, 2015 at 8:58:52 PM

Latest Report: Apr 1, 2015 at 7:53 PM


Visibility: 10 mi

Pressure: 29.78 "Hg

Humidity: 74%

Dew point: 64 °F

Location of PlanoLocation

Historic Weather in Plano — Graph

°F

Plano temperature yesterday

Maximum temperature yesterday: 83 °F (at 3:53 PM)
Minimum temperature yesterday: 61 °F (at 5:53 AM)
Average temperature yesterday: 71 °F

Past Weeks' High & Low Weather Summary

 TemperatureHumidityPressure
High83 °F (Mar 29, 5:53 PM)100% (Mar 19, 1:52 AM)30.21 "Hg (Mar 19, 1:52 AM)
Low41 °F (Mar 27, 5:53 AM)33% (Mar 26, 5:53 PM)29.75 "Hg (Mar 25, 10:53 PM)
Average62 °F76%30.03 "Hg
* Reported Mar 17 6:53 PM — Apr 1 6:53 PM, Plano, Weather by CustomWeather, © 2015

Note: Actual official high and low records may vary slightly from our data, if they occured in-between our weather recording intervals... More about our weather records

Advertising

Plano weather history for previous 24 hours

 ConditionsComfort  
Time TempWeatherWind HumidityBarometerVisibility
6:53 PM
Wed, Apr 1
73 °FLight rain. Scattered clouds.26 mph76%29.75 "Hg10 mi
5:53 PM72 °FLight rain. Mostly cloudy.18 mph76%29.81 "Hg7 mi
4:53 PM77 °FBroken clouds.14 mph64%29.82 "Hg10 mi
3:53 PM77 °FBroken clouds.15 mph66%29.83 "Hg10 mi
2:53 PM75 °FPassing clouds.17 mph74%29.83 "Hg10 mi
1:53 PM75 °FScattered clouds.20 mph71%29.87 "Hg10 mi
12:53 PM75 °FPartly sunny.16 mph74%29.88 "Hg9 mi
11:53 AM72 °FBroken clouds.14 mph81%29.90 "Hg7 mi
10:53 AM70 °FFog.8 mph87%29.92 "Hg6 mi
9:53 AM70 °FFog.6 mph87%29.93 "Hg5 mi
9:04 AM68 °FFog.7 mph93%29.92 "Hg5 mi
8:53 AM68 °FFog.8 mph90%29.91 "Hg5 mi
7:53 AM68 °FFog.13 mph90%29.90 "Hg4 mi
6:53 AM67 °FOvercast.15 mph90%29.87 "Hg7 mi
5:53 AM66 °FOvercast.9 mph93%29.89 "Hg8 mi
4:53 AM65 °FClear.8 mph91%29.90 "Hg10 mi
3:53 AM66 °FClear.6 mph84%29.90 "Hg10 mi
2:53 AM65 °FPassing clouds.7 mph85%29.91 "Hg10 mi
1:53 AM67 °FClear.9 mph79%29.90 "Hg10 mi
11:53 PM
Tue, Mar 31
68 °FClear.7 mph76%29.90 "Hg10 mi
10:53 PM69 °FClear.8 mph73%29.91 "Hg10 mi
9:53 PM72 °FClear.13 mph66%29.88 "Hg10 mi
8:53 PM73 °FClear.12 mph64%29.90 "Hg10 mi
Weather by CustomWeather, © 2015

See weather overviewHow to use our weather pages